Time,TemperatureF,DewpointF,PressureIn,WindDirection,WindDirectionDegrees,WindSpeedMPH,WindSpeedGustMPH,Humidity,HourlyPrecipIn,Conditions,Clouds,dailyrainin,SoftwareType,DateUTC
2017-06-28 00:00:00,76.8,73.0,29.92,South,178,0.0,1.0,88,0.00,,---,0.00,VWS V15.00,2017-06-28 05:00:00,
2017-06-28 00:05:00,76.8,73.0,29.92,SE,134,0.0,1.0,88,0.00,,---,0.00,VWS V15.00,2017-06-28 05:05:00,
2017-06-28 00:10:00,77.1,73.3,29.92,SE,134,0.0,1.0,88,0.00,,---,0.00,VWS V15.00,2017-06-28 05:10:00,
2017-06-28 00:15:00,77.5,73.7,29.92,ENE,75,0.0,2.0,88,0.00,,---,0.00,VWS V15.00,2017-06-28 05:15:00,
2017-06-28 00:20:00,77.7,73.5,29.92,East,86,2.0,3.0,87,0.00,,---,0.00,VWS V15.00,2017-06-28 05:20:00,
2017-06-28 00:25:00,77.6,73.4,29.92,ENE,76,0.0,1.0,87,0.00,,---,0.00,VWS V15.00,2017-06-28 05:25:00,
2017-06-28 00:30:00,77.5,73.7,29.92,East,94,0.0,1.0,88,0.00,,---,0.00,VWS V15.00,2017-06-28 05:30:00,
2017-06-28 00:35:00,77.4,73.6,29.92,ESE,102,0.0,2.0,88,0.00,,---,0.00,VWS V15.00,2017-06-28 05:35:00,
2017-06-28 00:40:00,77.3,73.5,29.92,ENE,72,1.0,3.0,88,0.00,,---,0.00,VWS V15.00,2017-06-28 05:40:00,
2017-06-28 00:45:00,77.2,73.4,29.92,ENE,64,1.0,3.0,88,0.00,,---,0.00,VWS V15.00,2017-06-28 05:45:00,
2017-06-28 00:50:00,77.2,73.4,29.92,East,97,0.0,1.0,88,0.00,,---,0.00,VWS V15.00,2017-06-28 05:50:00,
2017-06-28 00:55:00,77.2,73.4,29.92,ENE,74,0.0,5.0,88,0.00,,---,0.00,VWS V15.00,2017-06-28 05:55:00,
2017-06-28 01:00:00,77.2,73.4,29.92,East,100,1.0,1.0,88,0.00,,---,0.00,VWS V15.00,2017-06-28 06:00:00,
2017-06-28 01:05:00,77.2,73.4,29.92,East,82,2.0,2.0,88,0.00,,---,0.00,VWS V15.00,2017-06-28 06:05:00,
2017-06-28 01:10:00,77.2,73.4,29.92,NE,39,0.0,2.0,88,0.00,,---,0.00,VWS V15.00,2017-06-28 06:10:00,
2017-06-28 01:15:00,77.2,73.4,29.92,East,101,0.0,2.0,88,0.00,,---,0.00,VWS V15.00,2017-06-28 06:15:00,
2017-06-28 01:20:00,77.3,73.5,29.92,ENE,63,0.0,1.0,88,0.00,,---,0.00,VWS V15.00,2017-06-28 06:20:00,
2017-06-28 01:25:00,77.4,73.6,29.92,East,79,0.0,1.0,88,0.00,,---,0.00,VWS V15.00,2017-06-28 06:25:00,
2017-06-28 01:30:00,77.4,73.6,29.92,East,79,0.0,1.0,88,0.00,,---,0.00,VWS V15.00,2017-06-28 06:30:00,
2017-06-28 01:35:00,77.4,73.6,29.92,ENE,64,0.0,2.0,88,0.00,,---,0.00,VWS V15.00,2017-06-28 06:35:00,
2017-06-28 01:40:00,77.5,73.7,29.92,East,83,1.0,2.0,88,0.00,,---,0.00,VWS V15.00,2017-06-28 06:40:00,
2017-06-28 01:45:00,77.5,73.7,29.92,East,97,1.0,4.0,88,0.00,,---,0.00,VWS V15.00,2017-06-28 06:45:00,
2017-06-28 01:50:00,77.6,73.8,29.92,East,98,1.0,2.0,88,0.00,,---,0.00,VWS V15.00,2017-06-28 06:50:00,
2017-06-28 01:55:00,77.5,73.7,29.92,East,98,0.0,4.0,88,0.00,,---,0.00,VWS V15.00,2017-06-28 06:55:00,
2017-06-28 02:00:00,77.5,73.7,29.92,ESE,102,0.0,3.0,88,0.00,,---,0.00,VWS V15.00,2017-06-28 07:00:00,
2017-06-28 02:05:00,77.4,73.6,29.92,NE,56,3.0,3.0,88,0.00,,---,0.00,VWS V15.00,2017-06-28 07:05:00,
2017-06-28 02:06:00,77.4,73.6,29.92,ENE,57,0.0,3.0,88,0.00,,---,0.00,VWS V15.00,2017-06-28 07:06:00,
2017-06-28 02:11:00,77.3,73.5,29.92,East,91,0.0,2.0,88,0.00,,---,0.00,VWS V15.00,2017-06-28 07:11:00,
2017-06-28 02:16:00,77.2,73.7,29.92,East,93,0.0,2.0,89,0.00,,---,0.00,VWS V15.00,2017-06-28 07:16:00,
2017-06-28 02:21:00,77.4,73.9,29.92,East,93,0.0,1.0,89,0.00,,---,0.00,VWS V15.00,2017-06-28 07:21:00,
2017-06-28 02:26:00,77.5,74.0,29.92,East,90,0.0,1.0,89,0.00,,---,0.00,VWS V15.00,2017-06-28 07:26:00,
2017-06-28 02:31:00,77.5,73.7,29.91,ENE,70,4.0,4.0,88,0.00,,---,0.00,VWS V15.00,2017-06-28 07:31:00,
2017-06-28 02:36:00,77.4,73.6,29.91,ESE,105,0.0,3.0,88,0.00,,---,0.00,VWS V15.00,2017-06-28 07:36:00,
2017-06-28 02:41:00,77.4,73.6,29.91,ENE,77,1.0,3.0,88,0.00,,---,0.00,VWS V15.00,2017-06-28 07:41:00,
2017-06-28 02:46:00,77.3,73.8,29.91,East,86,2.0,3.0,89,0.00,,---,0.00,VWS V15.00,2017-06-28 07:46:00,
2017-06-28 02:51:00,77.3,73.8,29.91,East,94,0.0,3.0,89,0.00,,---,0.00,VWS V15.00,2017-06-28 07:51:00,
2017-06-28 02:56:00,77.2,73.7,29.91,ESE,109,1.0,2.0,89,0.00,,---,0.00,VWS V15.00,2017-06-28 07:56:00,
2017-06-28 03:01:00,77.2,73.7,29.90,East,101,0.0,2.0,89,0.00,,---,0.00,VWS V15.00,2017-06-28 08:01:00,
2017-06-28 03:06:00,77.1,73.6,29.91,East,94,0.0,2.0,89,0.00,,---,0.00,VWS V15.00,2017-06-28 08:06:00,
2017-06-28 03:11:00,76.9,73.4,29.90,East,92,1.0,4.0,89,0.00,,---,0.00,VWS V15.00,2017-06-28 08:11:00,
2017-06-28 03:16:00,76.9,73.4,29.90,East,91,3.0,4.0,89,0.00,,---,0.00,VWS V15.00,2017-06-28 08:16:00,
2017-06-28 03:21:00,76.9,73.4,29.90,ESE,106,2.0,4.0,89,0.00,,---,0.00,VWS V15.00,2017-06-28 08:21:00,
2017-06-28 03:26:00,76.9,73.4,29.89,East,95,3.0,4.0,89,0.00,,---,0.00,VWS V15.00,2017-06-28 08:26:00,
2017-06-28 03:31:00,76.8,73.3,29.89,NE,52,0.0,2.0,89,0.00,,---,0.00,VWS V15.00,2017-06-28 08:31:00,
2017-06-28 03:33:00,76.8,73.3,29.89,ESE,102,2.0,4.0,89,0.00,,---,0.00,VWS V15.00,2017-06-28 08:33:00,
2017-06-28 03:38:00,76.8,73.3,29.89,ESE,115,0.0,4.0,89,0.00,,---,0.00,VWS V15.00,2017-06-28 08:38:00,
2017-06-28 03:43:00,76.7,73.2,29.89,NE,50,2.0,4.0,89,0.00,,---,0.00,VWS V15.00,2017-06-28 08:43:00,
2017-06-28 03:48:00,76.6,73.4,29.89,East,98,1.0,3.0,90,0.00,,---,0.00,VWS V15.00,2017-06-28 08:48:00,
2017-06-28 03:53:00,76.7,73.6,29.89,West,269,1.0,7.0,90,0.00,,---,0.00,VWS V15.00,2017-06-28 08:53:00,
2017-06-28 03:58:00,76.5,72.7,29.89,SSE,148,1.0,2.0,88,0.00,,---,0.00,VWS V15.00,2017-06-28 08:58:00,
2017-06-28 04:03:00,76.3,71.8,29.89,ESE,108,5.0,7.0,86,0.00,,---,0.00,VWS V15.00,2017-06-28 09:03:00,
2017-06-28 04:08:00,76.3,71.5,29.89,ENE,67,2.0,5.0,85,0.00,,---,0.00,VWS V15.00,2017-06-28 09:08:00,
2017-06-28 04:13:00,76.3,71.5,29.89,SSE,155,0.0,0.0,85,0.00,,---,0.00,VWS V15.00,2017-06-28 09:13:00,
2017-06-28 04:18:00,76.2,71.7,29.89,ENE,70,0.0,1.0,86,0.00,,---,0.00,VWS V15.00,2017-06-28 09:18:00,
2017-06-28 04:23:00,76.1,71.6,29.89,ESE,108,0.0,2.0,86,0.00,,---,0.00,VWS V15.00,2017-06-28 09:23:00,
2017-06-28 04:28:00,76.0,71.5,29.89,East,86,0.0,2.0,86,0.00,,---,0.00,VWS V15.00,2017-06-28 09:28:00,
2017-06-28 04:33:00,75.9,71.4,29.89,East,100,0.0,1.0,86,0.00,,---,0.00,VWS V15.00,2017-06-28 09:33:00,
2017-06-28 04:38:00,75.9,72.1,29.89,ENE,67,2.0,2.0,88,0.00,,---,0.00,VWS V15.00,2017-06-28 09:38:00,
2017-06-28 04:43:00,75.9,72.1,29.88,East,85,0.0,1.0,88,0.00,,---,0.00,VWS V15.00,2017-06-28 09:43:00,
2017-06-28 04:48:00,75.8,72.3,29.88,East,93,0.0,2.0,89,0.00,,---,0.00,VWS V15.00,2017-06-28 09:48:00,
2017-06-28 04:53:00,75.8,72.3,29.88,ENE,62,0.0,3.0,89,0.00,,---,0.00,VWS V15.00,2017-06-28 09:53:00,
2017-06-28 04:58:00,75.8,72.7,29.88,ESE,104,0.0,1.0,90,0.00,,---,0.00,VWS V15.00,2017-06-28 09:58:00,
2017-06-28 05:03:00,75.9,72.8,29.88,ENE,57,0.0,1.0,90,0.00,,---,0.00,VWS V15.00,2017-06-28 10:03:00,
2017-06-28 05:08:00,76.0,72.9,29.88,East,80,0.0,2.0,90,0.00,,---,0.00,VWS V15.00,2017-06-28 10:08:00,
2017-06-28 05:09:00,76.0,72.9,29.88,East,101,2.0,2.0,90,0.00,,---,0.00,VWS V15.00,2017-06-28 10:09:00,
2017-06-28 05:14:00,76.0,72.9,29.88,East,96,0.0,3.0,90,0.00,,---,0.00,VWS V15.00,2017-06-28 10:14:00,
2017-06-28 05:19:00,75.9,72.8,29.88,East,96,0.0,5.0,90,0.00,,---,0.00,VWS V15.00,2017-06-28 10:19:00,
2017-06-28 05:24:00,75.8,73.0,29.88,NE,51,3.0,4.0,91,0.00,,---,0.00,VWS V15.00,2017-06-28 10:24:00,
2017-06-28 05:29:00,75.8,73.0,29.88,ENE,67,2.0,4.0,91,0.00,,---,0.00,VWS V15.00,2017-06-28 10:29:00,
2017-06-28 05:34:00,75.7,72.9,29.88,SE,134,0.0,1.0,91,0.00,,---,0.00,VWS V15.00,2017-06-28 10:34:00,
2017-06-28 05:39:00,75.7,72.9,29.88,ENE,65,0.0,1.0,91,0.00,,---,0.00,VWS V15.00,2017-06-28 10:39:00,
2017-06-28 05:44:00,75.6,72.8,29.88,NE,44,0.0,3.0,91,0.00,,---,0.00,VWS V15.00,2017-06-28 10:44:00,
2017-06-28 05:49:00,75.5,72.7,29.88,ENE,70,2.0,4.0,91,0.00,,---,0.00,VWS V15.00,2017-06-28 10:49:00,
2017-06-28 05:54:00,75.5,73.0,29.88,ENE,69,3.0,3.0,92,0.00,,---,0.00,VWS V15.00,2017-06-28 10:54:00,
2017-06-28 05:59:00,75.6,73.1,29.88,ESE,102,2.0,6.0,92,0.00,,---,0.00,VWS V15.00,2017-06-28 10:59:00,
2017-06-28 06:04:00,75.6,72.8,29.87,ENE,63,1.0,4.0,91,0.00,,---,0.00,VWS V15.00,2017-06-28 11:04:00,
2017-06-28 06:09:00,75.7,72.9,29.88,East,98,1.0,3.0,91,0.00,,---,0.00,VWS V15.00,2017-06-28 11:09:00,
2017-06-28 06:14:00,75.7,72.9,29.88,NE,49,3.0,6.0,91,0.00,,---,0.00,VWS V15.00,2017-06-28 11:14:00,
2017-06-28 06:19:00,75.8,73.0,29.88,NE,40,0.0,4.0,91,0.00,,---,0.00,VWS V15.00,2017-06-28 11:19:00,
2017-06-28 06:24:00,75.7,72.9,29.88,NE,39,3.0,5.0,91,0.00,,---,0.00,VWS V15.00,2017-06-28 11:24:00,
2017-06-28 06:29:00,75.7,72.9,29.88,East,80,0.0,3.0,91,0.00,,---,0.00,VWS V15.00,2017-06-28 11:29:00,
2017-06-28 06:34:00,75.7,72.9,29.88,East,85,1.0,4.0,91,0.00,,---,0.00,VWS V15.00,2017-06-28 11:34:00,
2017-06-28 06:39:00,75.7,72.9,29.88,ENE,70,2.0,4.0,91,0.00,,---,0.00,VWS V15.00,2017-06-28 11:39:00,
2017-06-28 06:44:00,75.7,72.9,29.88,ENE,74,1.0,4.0,91,0.00,,---,0.00,VWS V15.00,2017-06-28 11:44:00,
2017-06-28 06:49:00,75.7,72.9,29.88,ESE,105,2.0,4.0,91,0.00,,---,0.00,VWS V15.00,2017-06-28 11:49:00,
2017-06-28 06:54:00,75.9,73.1,29.88,NE,52,2.0,4.0,91,0.00,,---,0.00,VWS V15.00,2017-06-28 11:54:00,
2017-06-28 06:59:00,76.2,73.4,29.88,ESE,105,2.0,2.0,91,0.00,,---,0.00,VWS V15.00,2017-06-28 11:59:00,
2017-06-28 07:04:00,76.4,73.2,29.88,East,88,1.0,5.0,90,0.00,,---,0.00,VWS V15.00,2017-06-28 12:04:00,
2017-06-28 07:09:00,76.5,73.3,29.88,ENE,75,2.0,6.0,90,0.00,,---,0.00,VWS V15.00,2017-06-28 12:09:00,
2017-06-28 07:14:00,76.7,73.2,29.89,East,101,1.0,8.0,89,0.00,,---,0.00,VWS V15.00,2017-06-28 12:14:00,
2017-06-28 07:19:00,76.9,73.4,29.89,ESE,108,1.0,7.0,89,0.00,,---,0.00,VWS V15.00,2017-06-28 12:19:00,
2017-06-28 07:24:00,77.2,73.7,29.89,ESE,105,3.0,5.0,89,0.00,,---,0.00,VWS V15.00,2017-06-28 12:24:00,
2017-06-28 07:29:00,77.6,73.8,29.89,East,90,4.0,5.0,88,0.00,,---,0.00,VWS V15.00,2017-06-28 12:29:00,
2017-06-28 07:35:00,77.7,73.9,29.89,ENE,72,1.0,6.0,88,0.00,,---,0.00,VWS V15.00,2017-06-28 12:35:00,
2017-06-28 07:40:00,77.9,73.7,29.89,East,95,2.0,8.0,87,0.00,,---,0.00,VWS V15.00,2017-06-28 12:40:00,
2017-06-28 07:45:00,78.1,73.9,29.89,ENE,61,0.0,5.0,87,0.00,,---,0.00,VWS V15.00,2017-06-28 12:45:00,
2017-06-28 07:50:00,78.2,73.7,29.89,ENE,58,3.0,10.0,86,0.00,,---,0.00,VWS V15.00,2017-06-28 12:50:00,
2017-06-28 07:55:00,78.3,74.1,29.89,NE,56,0.0,6.0,87,0.00,,---,0.00,VWS V15.00,2017-06-28 12:55:00,
2017-06-28 08:00:00,78.6,74.4,29.89,East,86,5.0,7.0,87,0.00,,---,0.00,VWS V15.00,2017-06-28 13:00:00,
2017-06-28 08:05:00,78.9,74.4,29.89,ESE,106,3.0,8.0,86,0.00,,---,0.00,VWS V15.00,2017-06-28 13:05:00,
2017-06-28 08:10:00,78.8,74.3,29.89,ENE,71,3.0,9.0,86,0.00,,---,0.00,VWS V15.00,2017-06-28 13:10:00,
2017-06-28 08:15:00,78.8,74.3,29.89,ENE,75,4.0,7.0,86,0.00,,---,0.00,VWS V15.00,2017-06-28 13:15:00,
2017-06-28 08:20:00,78.8,74.3,29.89,East,92,10.0,10.0,86,0.00,,---,0.00,VWS V15.00,2017-06-28 13:20:00,
2017-06-28 08:25:00,79.0,74.5,29.89,East,79,2.0,8.0,86,0.00,,---,0.00,VWS V15.00,2017-06-28 13:25:00,
2017-06-28 08:30:00,78.8,74.3,29.89,ENE,74,3.0,9.0,86,0.00,,---,0.00,VWS V15.00,2017-06-28 13:30:00,
2017-06-28 08:35:00,79.1,74.6,29.88,NE,35,1.0,7.0,86,0.00,,---,0.00,VWS V15.00,2017-06-28 13:35:00,
2017-06-28 08:40:00,79.5,74.9,29.88,ENE,60,3.0,6.0,86,0.00,,---,0.00,VWS V15.00,2017-06-28 13:40:00,
2017-06-28 08:45:00,79.6,75.1,29.88,East,82,4.0,12.0,86,0.00,,---,0.00,VWS V15.00,2017-06-28 13:45:00,
2017-06-28 08:50:00,79.9,75.0,29.88,NE,55,2.0,5.0,85,0.00,,---,0.00,VWS V15.00,2017-06-28 13:50:00,
2017-06-28 08:55:00,80.0,74.7,29.88,ESE,115,3.0,8.0,84,0.00,,---,0.00,VWS V15.00,2017-06-28 13:55:00,
2017-06-28 09:00:00,80.1,75.2,29.88,NE,42,3.0,6.0,85,0.00,,---,0.00,VWS V15.00,2017-06-28 14:00:00,
2017-06-28 09:05:00,80.4,75.1,29.89,East,85,4.0,6.0,84,0.00,,---,0.00,VWS V15.00,2017-06-28 14:05:00,
2017-06-28 09:10:00,80.6,75.3,29.89,ESE,104,4.0,5.0,84,0.00,,---,0.00,VWS V15.00,2017-06-28 14:10:00,
2017-06-28 09:15:00,80.9,75.6,29.89,ENE,72,7.0,7.0,84,0.00,,---,0.00,VWS V15.00,2017-06-28 14:15:00,
2017-06-28 09:20:00,81.1,75.4,29.89,ENE,70,2.0,7.0,83,0.00,,---,0.00,VWS V15.00,2017-06-28 14:20:00,
2017-06-28 09:25:00,81.4,75.7,29.89,ESE,112,4.0,8.0,83,0.00,,---,0.00,VWS V15.00,2017-06-28 14:25:00,
2017-06-28 09:30:00,81.5,75.8,29.89,East,98,4.0,8.0,83,0.00,,---,0.00,VWS V15.00,2017-06-28 14:30:00,
2017-06-28 09:35:00,81.4,75.7,29.89,ESE,102,4.0,8.0,83,0.00,,---,0.00,VWS V15.00,2017-06-28 14:35:00,
2017-06-28 09:40:00,81.3,75.7,29.89,SE,131,2.0,8.0,83,0.00,,---,0.00,VWS V15.00,2017-06-28 14:40:00,
2017-06-28 09:45:00,81.9,76.2,29.89,NE,34,1.0,11.0,83,0.00,,---,0.00,VWS V15.00,2017-06-28 14:45:00,
2017-06-28 09:50:00,82.5,76.1,29.89,ESE,103,0.0,6.0,81,0.00,,---,0.00,VWS V15.00,2017-06-28 14:50:00,
2017-06-28 09:55:00,83.1,76.3,29.89,SE,140,3.0,5.0,80,0.00,,---,0.00,VWS V15.00,2017-06-28 14:55:00,
2017-06-28 10:00:00,83.6,76.4,29.89,SE,131,2.0,9.0,79,0.00,,---,0.00,VWS V15.00,2017-06-28 15:00:00,
2017-06-28 10:05:00,83.6,76.8,29.89,ESE,107,0.0,4.0,80,0.00,,---,0.00,VWS V15.00,2017-06-28 15:05:00,
2017-06-28 10:10:00,83.6,76.0,29.89,East,92,4.0,8.0,78,0.00,,---,0.00,VWS V15.00,2017-06-28 15:10:00,
2017-06-28 10:15:00,83.1,75.9,29.89,ESE,113,2.0,6.0,79,0.00,,---,0.00,VWS V15.00,2017-06-28 15:15:00,
2017-06-28 10:21:00,83.1,76.3,29.89,ESE,111,1.0,6.0,80,0.00,,---,0.00,VWS V15.00,2017-06-28 15:21:00,
2017-06-28 10:26:00,82.8,76.0,29.89,ESE,110,0.0,8.0,80,0.00,,---,0.00,VWS V15.00,2017-06-28 15:26:00,
2017-06-28 10:31:00,82.1,75.7,29.89,ESE,105,3.0,9.0,81,0.00,,---,0.00,VWS V15.00,2017-06-28 15:31:00,
2017-06-28 10:36:00,81.6,75.9,29.89,ESE,106,0.0,6.0,83,0.00,,---,0.00,VWS V15.00,2017-06-28 15:36:00,
2017-06-28 10:41:00,81.3,76.4,29.89,ESE,110,0.0,4.0,85,0.00,,---,0.00,VWS V15.00,2017-06-28 15:41:00,
2017-06-28 10:46:00,80.9,76.7,29.89,SE,138,0.0,3.0,87,0.00,,---,0.00,VWS V15.00,2017-06-28 15:46:00,
2017-06-28 10:51:00,80.8,76.6,29.89,NE,55,1.0,5.0,87,0.00,,---,0.00,VWS V15.00,2017-06-28 15:51:00,
2017-06-28 10:56:00,81.0,76.8,29.89,ESE,108,0.0,4.0,87,0.00,,---,0.00,VWS V15.00,2017-06-28 15:56:00,
2017-06-28 11:01:00,81.3,76.4,29.89,East,98,2.0,8.0,85,0.01,,---,0.01,VWS V15.00,2017-06-28 16:01:00,
2017-06-28 11:06:00,81.7,76.0,29.90,ESE,107,2.0,8.0,83,0.01,,---,0.01,VWS V15.00,2017-06-28 16:06:00,
2017-06-28 11:11:00,82.5,76.1,29.89,NE,56,9.0,10.0,81,0.01,,---,0.01,VWS V15.00,2017-06-28 16:11:00,
2017-06-28 11:16:00,82.7,75.2,29.89,ESE,117,2.0,10.0,78,0.01,,---,0.01,VWS V15.00,2017-06-28 16:16:00,
2017-06-28 11:21:00,82.8,75.6,29.89,ESE,116,0.0,8.0,79,0.01,,---,0.01,VWS V15.00,2017-06-28 16:21:00,
2017-06-28 11:26:00,83.2,76.0,29.89,ESE,110,2.0,10.0,79,0.01,,---,0.01,VWS V15.00,2017-06-28 16:26:00,
2017-06-28 11:31:00,83.8,75.8,29.89,East,94,2.0,12.0,77,0.01,,---,0.01,VWS V15.00,2017-06-28 16:31:00,
2017-06-28 11:36:00,84.2,75.4,29.90,East,96,4.0,11.0,75,0.01,,---,0.01,VWS V15.00,2017-06-28 16:36:00,
2017-06-28 11:41:00,84.1,75.7,29.89,ESE,104,3.0,12.0,76,0.01,,---,0.01,VWS V15.00,2017-06-28 16:41:00,
2017-06-28 11:46:00,84.3,75.9,29.89,ENE,70,1.0,7.0,76,0.01,,---,0.01,VWS V15.00,2017-06-28 16:46:00,
2017-06-28 11:51:00,84.2,75.8,29.89,ESE,113,0.0,10.0,76,0.01,,---,0.01,VWS V15.00,2017-06-28 16:51:00,
2017-06-28 11:56:00,84.7,75.5,29.89,ENE,71,4.0,12.0,74,0.01,,---,0.01,VWS V15.00,2017-06-28 16:56:00,
2017-06-28 12:01:00,85.5,75.4,29.88,ENE,75,6.0,11.0,72,0.01,,---,0.01,VWS V15.00,2017-06-28 17:01:00,
2017-06-28 12:06:00,86.2,76.1,29.88,ENE,58,2.0,10.0,72,0.00,,---,0.01,VWS V15.00,2017-06-28 17:06:00,
2017-06-28 12:11:00,86.6,76.1,29.89,ENE,62,1.0,11.0,71,0.00,,---,0.01,VWS V15.00,2017-06-28 17:11:00,
2017-06-28 12:16:00,86.7,75.3,29.89,East,79,3.0,10.0,69,0.00,,---,0.01,VWS V15.00,2017-06-28 17:16:00,
2017-06-28 12:21:00,86.6,75.7,29.89,SSE,162,1.0,12.0,70,0.00,,---,0.01,VWS V15.00,2017-06-28 17:21:00,
2017-06-28 12:26:00,86.7,75.8,29.88,ENE,57,5.0,11.0,70,0.00,,---,0.01,VWS V15.00,2017-06-28 17:26:00,
2017-06-28 12:31:00,86.6,75.2,29.89,East,93,4.0,16.0,69,0.00,,---,0.01,VWS V15.00,2017-06-28 17:31:00,
2017-06-28 12:36:00,86.8,75.4,29.89,ESE,108,5.0,8.0,69,0.00,,---,0.01,VWS V15.00,2017-06-28 17:36:00,
2017-06-28 12:41:00,86.6,75.7,29.89,ESE,108,7.0,14.0,70,0.00,,---,0.01,VWS V15.00,2017-06-28 17:41:00,
2017-06-28 12:46:00,86.2,74.4,29.89,ENE,63,3.0,13.0,68,0.00,,---,0.01,VWS V15.00,2017-06-28 17:46:00,
2017-06-28 12:48:00,86.3,74.9,29.89,ENE,70,8.0,11.0,69,0.00,,---,0.01,VWS V15.00,2017-06-28 17:48:00,